GW6248 Weather Reports


time (UTC)temp
C
wind
direction
speed
KPH
gust
KPH
rain 1hr
cm
rain 24hr
cm
rain mn
cm
humidity
%
barometer
mb
20260508071503 8 277 0.0 3.2 0.00 0.00 0.00 91 1014.9
20260508071003 8 345 0.0 3.2 0.00 0.00 0.00 91 1015.0
20260508070503 8 11 0.0 3.2 0.00 0.00 0.00 91 1014.9
20260508070004 8 17 0.0 1.6 0.00 0.00 0.00 92 1015.1
20260508065503 8 24 0.0 1.6 0.00 0.00 0.00 92 1015.0
20260508065003 7 9 0.0 1.6 0.00 0.00 0.00 93 1015.0
20260508064504 7 16 0.0 1.6 0.00 0.00 0.00 93 1015.0
20260508064003 7 19 0.0 1.6 0.00 0.00 0.00 92 1014.9
20260508063718 7 296 0.0 3.2 0.00 0.00 0.00 92 1014.9
20260508063004 7 246 1.6 3.2 0.00 0.00 0.00 93 1015.1
20260508062503 7 311 0.0 3.2 0.00 0.00 0.00 93 1015.0
20260508062003 7 354 0.0 3.2 0.00 0.00 0.00 93 1014.9
20260508061503 7 320 0.0 3.2 0.00 0.00 0.00 94 1014.8
20260508061003 7 282 1.6 3.2 0.00 0.00 0.00 94 1014.8
20260508060503 7 280 1.6 4.8 0.00 0.00 0.00 94 1014.7
20260508060003 7 348 1.6 4.8 0.00 0.00 0.00 94 1014.8
20260508055503 7 19 0.0 3.2 0.00 0.00 0.00 95 1014.7
20260508055004 7 9 1.6 3.2 0.00 0.00 0.00 95 1014.8
20260508054503 7 352 0.0 3.2 0.00 0.00 0.00 95 1014.7
20260508054003 6 348 0.0 3.2 0.00 0.00 0.00 95 1014.7
20260508053503 6 358 0.0 3.2 0.00 0.00 0.00 95 1014.8
20260508053216 6 351 0.0 3.2 0.00 0.00 0.00 94 1014.7
20260508052503 6 330 0.0 3.2 0.00 0.00 0.00 94 1014.5
20260508052216 6 333 0.0 3.2 0.00 0.00 0.00 94 1014.6
20260508051503 6 7 0.0 3.2 0.00 0.00 0.00 94 1014.5
20260508051003 6 14 1.6 3.2 0.00 0.00 0.00 94 1014.7
20260508050503 6 353 0.0 3.2 0.00 0.00 0.00 94 1014.6
20260508050003 6 304 0.0 3.2 0.00 0.00 0.00 94 1014.6
20260508045503 6 327 0.0 3.2 0.00 0.00 0.00 94 1014.4
20260508045003 6 10 0.0 1.6 0.00 0.00 0.00 94 1014.5
20260508044503 6 337 0.0 3.2 0.00 0.00 0.00 94 1014.5
20260508044218 6 330 0.0 3.2 0.00 0.00 0.00 94 1014.4
20260508043503 6 353 1.6 3.2 0.00 0.00 0.00 94 1014.3
20260508043003 6 3 1.6 3.2 0.00 0.00 0.00 94 1014.5
20260508042503 6 22 1.6 4.8 0.00 0.00 0.00 94 1014.3
20260508042218 6 31 1.6 4.8 0.00 0.00 0.00 94 1014.3
20260508041504 6 51 1.6 3.2 0.00 0.00 0.00 95 1014.3
20260508041003 6 27 1.6 3.2 0.00 0.00 0.00 95 1014.4
20260508040503 6 340 1.6 3.2 0.00 0.00 0.00 95 1014.3
20260508040004 6 357 1.6 3.2 0.00 0.00 0.00 95 1014.6
20260508035717 6 360 1.6 3.2 0.00 0.00 0.00 95 1014.3
20260508035003 6 337 1.6 3.2 0.00 0.00 0.00 95 1014.5
20260508034503 6 351 1.6 3.2 0.00 0.00 0.00 95 1014.5
20260508034003 6 1 0.0 3.2 0.00 0.00 0.00 95 1014.5
20260508033503 6 333 0.0 3.2 0.00 0.00 0.00 95 1014.5
20260508033004 6 260 0.0 6.4 0.00 0.00 0.00 95 1014.5
20260508032504 6 265 1.6 6.4 0.00 0.00 0.00 95 1014.5
20260508032003 6 310 1.6 4.8 0.00 0.00 0.00 95 1014.5
20260508031503 6 345 1.6 4.8 0.00 0.00 0.00 95 1014.5
20260508031003 6 8 1.6 3.2 0.00 0.00 0.00 95 1014.5
20260508030503 6 3 1.6 3.2 0.00 0.00 0.00 96 1014.7
20260508030218 6 350 1.6 3.2 0.00 0.00 0.00 96 1014.6
20260508025503 6 328 1.6 3.2 0.00 0.00 0.00 96 1014.5
20260508025003 5 338 0.0 3.2 0.00 0.00 0.00 96 1014.5
20260508024716 5 354 0.0 3.2 0.00 0.00 0.00 96 1014.6
20260508024003 5 33 0.0 3.2 0.00 0.00 0.00 96 1014.5
20260508023504 5 324 0.0 3.2 0.00 0.00 0.00 96 1014.4
20260508023004 5 317 0.0 3.2 0.00 0.00 0.00 96 1014.6
20260508022503 5 356 0.0 3.2 0.00 0.00 0.00 96 1014.5
20260508022003 5 4 0.0 3.2 0.00 0.00 0.00 96 1014.6
20260508021503 5 255 1.6 4.8 0.00 0.00 0.00 96 1014.5
20260508021003 5 307 1.6 4.8 0.00 0.00 0.00 96 1014.5
20260508020718 5 354 1.6 4.8 0.00 0.00 0.00 96 1014.4
20260508020004 5 12 1.6 4.8 0.00 0.00 0.00 96 1014.4
20260508015503 5 26 0.0 3.2 0.00 0.00 0.00 96 1014.3
20260508015003 5 42 0.0 3.2 0.00 0.00 0.00 96 1014.3
20260508014504 5 10 0.0 1.6 0.00 0.00 0.00 96 1014.6
20260508014003 5 354 0.0 3.2 0.00 0.00 0.00 96 1014.6
20260508013503 5 333 1.6 3.2 0.00 0.00 0.00 96 1014.5
20260508013003 5 320 1.6 3.2 0.00 0.00 0.00 96 1014.5
20260508012718 5 327 1.6 3.2 0.00 0.00 0.00 96 1014.5
20260508012003 5 323 1.6 4.8 0.00 0.00 0.00 96 1014.5
20260508011718 5 309 1.6 4.8 0.00 0.00 0.00 96 1014.6
20260508011003 5 320 1.6 3.2 0.00 0.00 0.00 96 1014.7
20260508010504 5 336 1.6 3.2 0.00 0.00 0.00 96 1014.5
20260508010003 5 351 1.6 3.2 0.00 0.00 0.00 96 1014.6
20260508005718 5 347 1.6 3.2 0.00 0.00 0.00 96 1014.5
20260508005003 5 331 0.0 3.2 0.00 0.00 0.00 95 1014.6
20260508004503 5 355 0.0 3.2 0.00 0.00 0.00 95 1014.4
20260508004004 5 346 0.0 3.2 0.00 0.00 0.00 95 1014.6
20260508003503 5 354 0.0 3.2 0.00 0.00 0.00 95 1014.5
20260508003217 5 342 0.0 3.2 0.00 0.00 0.00 95 1014.7
20260508002504 5 323 1.6 3.2 0.00 0.00 0.00 95 1014.7
20260508002216 5 331 1.6 3.2 0.00 0.00 0.00 95 1014.7
20260508001503 5 337 0.0 1.6 0.00 0.00 0.00 95 1014.7
20260508001003 5 350 0.0 3.2 0.00 0.00 0.00 95 1014.7
20260508000717 5 358 0.0 3.2 0.00 0.00 0.00 95 1014.6
20260508000216 5 355 0.0 1.6 0.00 0.00 0.00 94 1014.8
20260507235503 5 313 0.0 4.8 0.00 0.00 0.00 94 1014.9
20260507235003 6 352 0.0 3.2 0.00 0.00 0.00 94 1014.7
20260507234503 6 10 0.0 3.2 0.00 0.00 0.00 94 1014.7
20260507234003 6 1 0.0 1.6 0.00 0.00 0.00 94 1014.8
20260507233504 6 355 0.0 1.6 0.00 0.00 0.00 94 1014.8
20260507233003 6 345 0.0 1.6 0.00 0.00 0.00 94 1014.9
20260507232503 6 327 0.0 3.2 0.00 0.00 0.00 94 1014.7
20260507232218 6 336 0.0 3.2 0.00 0.00 0.00 94 1014.6
20260507231503 6 344 0.0 3.2 0.00 0.00 0.00 94 1014.7
20260507231003 6 314 1.6 3.2 0.00 0.00 0.00 94 1014.7
20260507230504 6 333 1.6 3.2 0.00 0.00 0.00 94 1014.7
20260507230218 6 1 0.0 3.2 0.00 0.00 0.00 94 1014.6
20260507225503 6 342 0.0 3.2 0.00 0.00 0.00 93 1014.9
20260507225003 6 297 0.0 3.2 0.00 0.00 0.00 93 1014.7
20260507224504 6 320 0.0 3.2 0.00 0.00 0.00 93 1014.8
20260507224003 6 333 0.0 3.2 0.00 0.00 0.00 93 1014.9
20260507223504 6 312 1.6 3.2 0.00 0.00 0.00 93 1014.8
20260507223003 6 317 0.0 3.2 0.00 0.00 0.00 93 1014.6
20260507222503 7 321 0.0 3.2 0.00 0.00 0.00 93 1014.7
20260507222004 7 325 0.0 3.2 0.00 0.00 0.00 93 1014.7
20260507221717 7 328 0.0 3.2 0.00 0.00 0.00 93 1014.7
20260507221218 7 346 0.0 3.2 0.00 0.00 0.00 93 1014.7
20260507220717 7 339 0.0 3.2 0.00 0.00 0.00 92 1014.7
20260507220218 7 327 0.0 3.2 0.00 0.00 0.00 92 1014.7
20260507215503 7 347 0.0 3.2 0.00 0.00 0.00 92 1014.7
20260507215003 7 336 0.0 3.2 0.00 0.00 0.00 92 1014.5
20260507214716 7 330 0.0 3.2 0.00 0.00 0.00 92 1014.5
20260507214003 7 354 0.0 3.2 0.00 0.00 0.00 91 1014.5
20260507213503 7 352 0.0 3.2 0.00 0.00 0.00 91 1014.4
20260507213003 7 343 0.0 1.6 0.00 0.00 0.00 90 1014.5
20260507212503 7 337 0.0 1.6 0.00 0.00 0.00 89 1014.5
20260507212004 7 306 0.0 3.2 0.00 0.00 0.00 88 1014.4
20260507211503 7 310 0.0 3.2 0.00 0.00 0.00 88 1014.4
20260507211004 8 322 0.0 3.2 0.00 0.00 0.00 89 1014.5
20260507210503 8 325 0.0 1.6 0.00 0.00 0.00 88 1014.3
20260507210004 8 323 1.6 3.2 0.00 0.00 0.00 88 1014.5
20260507205504 8 326 1.6 3.2 0.00 0.00 0.00 87 1014.3
20260507205003 8 332 1.6 3.2 0.00 0.00 0.00 87 1014.3
20260507204503 8 321 0.0 3.2 0.00 0.00 0.00 86 1014.2
20260507204003 8 307 0.0 3.2 0.00 0.00 0.00 85 1014.1
20260507203503 8 322 0.0 3.2 0.00 0.00 0.00 85 1014.1
20260507203217 8 332 0.0 3.2 0.00 0.00 0.00 85 1014.0
20260507202718 9 342 0.0 3.2 0.00 0.00 0.00 84 1014.0
20260507202003 9 324 0.0 3.2 0.00 0.00 0.00 83 1014.1
20260507201503 10 314 0.0 3.2 0.00 0.00 0.00 83 1013.9
20260507201217 10 305 0.0 3.2 0.00 0.00 0.00 82 1013.8
20260507200504 10 340 0.0 1.6 0.00 0.00 0.00 82 1013.9
20260507200004 10 312 0.0 1.6 0.00 0.00 0.00 81 1013.7
20260507195504 10 328 0.0 1.6 0.00 0.00 0.00 81 1013.9
20260507195217 10 332 0.0 1.6 0.00 0.00 0.00 81 1013.9
20260507194503 10 343 0.0 3.2 0.00 0.00 0.00 80 1013.8
20260507194004 10 350 0.0 3.2 0.00 0.00 0.00 80 1013.6
20260507193503 10 353 0.0 1.6 0.00 0.00 0.00 80 1013.5
20260507193004 10 324 0.0 1.6 0.00 0.00 0.00 80 1013.6
20260507192503 10 324 0.0 1.6 0.00 0.00 0.00 79 1013.4
20260507192003 10 345 0.0 1.6 0.00 0.00 0.00 79 1013.7
20260507191718 10 356 0.0 1.6 0.00 0.00 0.00 79 1013.7
20260507191003 10 9 0.0 1.6 0.00 0.00 0.00 79 1013.4
20260507190718 10 359 0.0 1.6 0.00 0.00 0.00 78 1013.6
20260507190004 11 360 0.0 1.6 0.00 0.00 0.00 78 1013.6
20260507185503 11 5 0.0 3.2 0.00 0.00 0.00 78 1013.6
20260507185003 10 9 0.0 3.2 0.00 0.00 0.00 78 1013.4
20260507184503 11 17 0.0 1.6 0.00 0.00 0.00 78 1013.5
20260507184003 11 24 0.0 1.6 0.00 0.00 0.00 77 1013.4
20260507183503 11 18 0.0 3.2 0.00 0.00 0.00 77 1013.3
20260507183004 11 15 0.0 3.2 0.00 0.00 0.00 77 1013.5
20260507182503 11 3 0.0 3.2 0.00 0.00 0.00 76 1013.4
20260507182003 12 16 1.6 4.8 0.00 0.00 0.00 75 1013.4
20260507181503 12 26 1.6 4.8 0.00 0.00 0.00 70 1013.3
20260507181003 11 19 1.6 6.4 0.00 0.00 0.00 72 1013.4
20260507180717 11 8 1.6 6.4 0.00 0.00 0.00 74 1013.4
20260507180003 11 360 1.6 3.2 0.00 0.00 0.00 77 1013.3
20260507175503 11 4 0.0 3.2 0.00 0.00 0.00 77 1013.4
20260507175003 11 4 0.0 3.2 0.00 0.00 0.00 77 1013.3
20260507174503 11 5 0.0 1.6 0.00 0.00 0.00 77 1013.5
20260507174003 11 357 0.0 1.6 0.00 0.00 0.00 76 1013.4
20260507173503 11 337 0.0 3.2 0.00 0.00 0.00 73 1013.2
20260507173004 12 333 1.6 4.8 0.00 0.00 0.00 72 1013.3
20260507172504 12 120 1.6 4.8 0.00 0.00 0.00 70 1013.3
20260507172003 12 97 1.6 4.8 0.00 0.00 0.00 71 1013.3
20260507171503 12 66 1.6 6.4 0.00 0.00 0.00 72 1013.3
20260507171003 12 65 3.2 6.4 0.00 0.00 0.00 72 1013.4
20260507170503 12 58 3.2 8.0 0.00 0.00 0.00 73 1013.3
20260507170218 12 64 3.2 8.0 0.00 0.00 0.00 72 1013.6
20260507165504 12 76 3.2 8.0 0.00 0.00 0.00 73 1013.3
20260507165003 12 88 3.2 6.4 0.00 0.00 0.00 74 1013.4
20260507164503 12 83 3.2 8.0 0.00 0.00 0.00 73 1013.3
20260507164003 12 90 3.2 8.0 0.00 0.00 0.00 77 1013.3
20260507163503 12 96 4.8 9.7 0.00 0.00 0.00 77 1013.4
20260507163003 12 90 4.8 9.7 0.00 0.00 0.00 76 1013.3
20260507162503 12 73 4.8 9.7 0.00 0.00 0.00 72 1013.2
20260507162003 12 75 3.2 9.7 0.00 0.00 0.00 73 1013.5
20260507161503 12 111 3.2 8.0 0.00 0.00 0.00 74 1013.5
20260507161003 12 118 3.2 8.0 0.00 0.00 0.00 74 1013.3
20260507160503 12 99 3.2 8.0 0.00 0.00 0.00 73 1013.3
20260507160217 12 94 3.2 8.0 0.00 0.00 0.00 74 1013.2
20260507155504 12 141 4.8 12.9 0.00 0.00 0.00 74 1013.4
20260507155003 12 163 4.8 12.9 0.00 0.00 0.00 75 1013.4
20260507154718 12 128 4.8 9.7 0.00 0.00 0.00 74 1013.3
20260507154004 12 100 3.2 11.3 0.00 0.00 0.00 73 1013.5
20260507153504 12 144 3.2 11.3 0.00 0.00 0.00 73 1013.4
20260507153217 12 142 3.2 11.3 0.00 0.00 0.00 73 1013.5
20260507152504 12 116 3.2 8.0 0.00 0.00 0.00 73 1013.5
20260507152003 12 110 3.2 8.0 0.00 0.00 0.00 74 1013.6
20260507151503 12 115 3.2 9.7 0.00 0.00 0.00 75 1013.3
20260507151217 12 111 3.2 9.7 0.00 0.00 0.00 75 1013.5
20260507150503 12 120 1.6 8.0 0.00 0.00 0.00 75 1013.4
20260507150003 12 91 3.2 8.0 0.00 0.00 0.00 75 1013.4
20260507145503 12 87 3.2 8.0 0.00 0.00 0.00 76 1013.4
20260507145003 12 97 3.2 11.3 0.00 0.00 0.00 75 1013.5
20260507144503 12 79 3.2 11.3 0.00 0.00 0.00 76 1013.3
20260507144004 12 58 3.2 9.7 0.00 0.00 0.00 76 1013.6
20260507143503 12 17 3.2 6.4 0.00 0.00 0.00 77 1013.5
20260507143217 12 348 1.6 6.4 0.00 0.00 0.00 77 1013.7
20260507142503 12 351 1.6 6.4 0.00 0.00 0.00 78 1013.5
20260507142003 12 315 1.6 6.4 0.00 0.00 0.00 76 1013.5
20260507141503 12 252 0.0 3.2 0.00 0.00 0.00 76 1013.5
20260507141004 12 242 1.6 4.8 0.00 0.00 0.00 74 1013.6
20260507140503 12 59 1.6 6.4 0.00 0.00 0.00 71 1013.5
20260507140217 12 82 3.2 6.4 0.00 0.00 0.00 70 1013.6
20260507135718 13 165 3.2 8.0 0.00 0.00 0.00 69 1013.5
20260507135003 13 170 3.2 8.0 0.00 0.00 0.00 66 1013.4
20260507134503 13 142 3.2 6.4 0.00 0.00 0.00 67 1013.5
20260507134004 13 84 3.2 6.4 0.00 0.00 0.00 69 1013.4
20260507133503 13 80 3.2 8.0 0.00 0.00 0.00 69 1013.6
20260507133003 13 90 3.2 8.0 0.00 0.00 0.00 68 1013.5
20260507132504 13 95 3.2 8.0 0.00 0.00 0.00 67 1013.6
20260507132003 13 118 3.2 8.0 0.00 0.00 0.00 68 1013.7
20260507131503 12 192 1.6 6.4 0.00 0.00 0.00 68 1013.4
20260507131003 12 261 3.2 8.0 0.00 0.00 0.00 68 1013.4
20260507130503 12 264 3.2 9.7 0.00 0.00 0.00 68 1013.6
20260507130003 12 71 4.8 9.7 0.00 0.00 0.00 68 1013.4
20260507125503 13 89 3.2 9.7 0.00 0.00 0.00 66 1013.3
20260507125004 13 140 3.2 6.4 0.00 0.00 0.00 66 1013.4
20260507124717 13 158 3.2 6.4 0.00 0.00 0.00 66 1013.6
20260507124003 13 83 1.6 6.4 0.00 0.00 0.00 65 1013.4
20260507123717 13 42 1.6 3.2 0.00 0.00 0.00 68 1013.2
20260507123003 12 32 1.6 6.4 0.00 0.00 0.00 67 1013.2
20260507122503 13 45 1.6 6.4 0.00 0.00 0.00 67 1013.2
20260507122004 13 65 1.6 6.4 0.00 0.00 0.00 66 1013.3
20260507121503 13 90 1.6 6.4 0.00 0.00 0.00 67 1013.2
20260507121003 13 135 1.6 4.8 0.00 0.00 0.00 66 1013.2
20260507120503 13 81 1.6 6.4 0.00 0.00 0.00 66 1013.3
20260507120004 13 64 1.6 6.4 0.00 0.00 0.00 65 1013.3
20260507115503 13 312 1.6 8.0 0.00 0.00 0.00 62 1013.0
20260507115004 13 271 1.6 8.0 0.00 0.00 0.00 58 1013.3
20260507114717 13 296 1.6 8.0 0.00 0.00 0.00 59 1013.4
20260507114003 13 352 3.2 9.7 0.00 0.00 0.00 56 1013.2
20260507113503 14 16 3.2 9.7 0.00 0.00 0.00 53 1013.1
20260507113004 14 358 1.6 6.4 0.00 0.00 0.00 56 1013.3
20260507112503 14 327 1.6 6.4 0.00 0.00 0.00 57 1013.2
20260507112003 14 260 3.2 9.7 0.00 0.00 0.00 59 1013.0
20260507111504 15 247 3.2 9.7 0.00 0.00 0.00 57 1013.2
20260507111217 15 255 3.2 8.0 0.00 0.00 0.00 53 1013.0
20260507110503 15 326 3.2 8.0 0.00 0.00 0.00 56 1013.3
20260507110003 15 310 3.2 6.4 0.00 0.00 0.00 56 1013.1
20260507105503 15 326 3.2 6.4 0.00 0.00 0.00 54 1013.6
20260507105217 15 334 1.6 6.4 0.00 0.00 0.00 54 1013.4
20260507104504 14 283 1.6 6.4 0.00 0.00 0.00 54 1013.4
20260507104217 14 268 3.2 6.4 0.00 0.00 0.00 55 1013.5
20260507103503 13 251 1.6 6.4 0.00 0.00 0.00 60 1013.4
20260507103003 13 303 1.6 8.0 0.00 0.00 0.00 60 1013.5
20260507102503 13 297 1.6 8.0 0.00 0.00 0.00 64 1013.5
20260507102003 13 264 3.2 6.4 0.00 0.00 0.00 66 1013.6
20260507101503 13 246 3.2 6.4 0.00 0.00 0.00 65 1013.7
20260507101003 13 233 1.6 4.8 0.00 0.00 0.00 62 1013.5
20260507100718 13 239 1.6 4.8 0.00 0.00 0.00 65 1013.6
20260507100003 12 239 1.6 6.4 0.00 0.00 0.00 67 1013.7
20260507095504 12 242 1.6 6.4 0.00 0.00 0.00 68 1013.8
20260507095004 12 262 1.6 6.4 0.00 0.00 0.00 70 1013.9
20260507094503 12 237 1.6 8.0 0.00 0.00 0.00 68 1013.9
20260507094003 11 243 1.6 8.0 0.00 0.00 0.00 70 1013.8
20260507093503 11 286 1.6 4.8 0.00 0.00 0.00 71 1013.9
20260507093003 11 263 1.6 4.8 0.00 0.00 0.00 70 1014.1
20260507092503 11 256 1.6 4.8 0.00 0.00 0.00 69 1014.0
20260507092217 11 264 1.6 4.8 0.00 0.00 0.00 70 1013.9
20260507091503 11 273 1.6 4.8 0.00 0.00 0.00 71 1013.9
20260507091217 11 275 1.6 4.8 0.00 0.00 0.00 72 1014.0
20260507090503 11 304 1.6 3.2 0.00 0.00 0.00 73 1014.0
20260507090004 11 324 0.0 3.2 0.00 0.00 0.00 73 1013.9
20260507085503 11 306 1.6 3.2 0.00 0.00 0.00 72 1013.8
20260507085003 11 298 1.6 3.2 0.00 0.00 0.00 73 1013.9
20260507084503 11 296 1.6 3.2 0.00 0.00 0.00 73 1014.0
20260507084003 11 291 1.6 4.8 0.00 0.00 0.00 73 1013.9
20260507083504 11 275 1.6 4.8 0.00 0.00 0.00 72 1013.9
20260507083003 11 296 0.0 4.8 0.00 0.00 0.00 71 1013.8
20260507082503 11 308 0.0 3.2 0.00 0.00 0.00 75 1013.8
20260507082003 11 310 1.6 3.2 0.00 0.00 0.00 75 1014.0
20260507081717 10 298 1.6 4.8 0.00 0.00 0.00 76 1013.6
20260507081003 10 292 1.6 4.8 0.00 0.00 0.00 75 1013.6
20260507080503 10 326 0.0 1.6 0.00 0.00 0.00 78 1013.8
20260507080004 10 318 0.0 3.2 0.00 0.00 0.00 77 1013.8
20260507075503 10 320 0.0 3.2 0.00 0.00 0.00 77 1013.9
20260507075003 10 322 0.0 3.2 0.00 0.00 0.00 77 1013.9
20260507074717 10 312 1.6 3.2 0.00 0.00 0.00 77 1013.7
20260507074003 10 308 0.0 3.2 0.00 0.00 0.00 78 1013.8
20260507073503 10 318 1.6 3.2 0.00 0.00 0.00 78 1013.7
20260507073004 10 305 1.6 3.2 0.00 0.00 0.00 77 1013.8
20260507072503 10 300 1.6 3.2 0.00 0.00 0.00 77 1013.7
20260507072003 10 317 0.0 3.2 0.00 0.00 0.00 76 1013.7